{"data":{"norad_id":23839,"intl_designator":"1996-020A","name":"INMARSAT 3-F1","alt_names":[],"object_type":"PAYLOAD","status":"ACTIVE","operator":null,"country":"IM","launch_date":"1996-04-03","launch_site_code":"AFETR","launch_vehicle":null,"mission":null,"orbit_class":"UNKNOWN","rcs_meters":1.1784,"size_class":null,"mass_kg":null,"dimensions":null,"purposes":["comms"],"wikipedia_slug":null,"has_3d_model":false,"image_url":null,"decayed_at":null,"tle_current":{"epoch":"2026-09-19T15:48:14.991840Z","epoch_age_seconds":84883,"freshness":"FRESH","line1":"1 23839U 96020A   26262.65850685 -.00000102  00000+0  00000+0 0  9995","line2":"2 23839  10.7950  45.7345 0007081 155.0923 203.1654  1.00003580111199","mean_motion":1.0000358,"eccentricity":0.0007081,"inclination_deg":10.795,"raan_deg":45.7345,"arg_perigee_deg":155.0923,"mean_anomaly_deg":203.1654,"bstar":0,"rev_number":11119,"period_min":1439.9484498455,"perigee_km":35832.040344189,"apogee_km":35891.860756177,"semimajor_km":42240.087550183,"source":"CELESTRAK","updated_at":"2026-09-20T09:00:35.116015Z"}}}